User: anonymous   Login
Location: �clusier
(49.9361°N, 2.7869°E)
Time: 01:38:13
(UTC+00:00)
Language:

In-Cosmos 22 - Orbit

View from above orbital plane
View from above orbital plane
View from above satellite
View from above satellite

Ground track
Ground track

The orbit data is extracted from the following two-line orbital elements,

1 12645U 81075A   21268.11081566  .00000081  00000-0  32057-4 0  9996
2 12645  81.2151 116.5004 0064403 119.5682 241.1933 14.18401848 75312
Epoch (UTC): 25 September 2021 02:39:34
Eccentricity: 0.0064403
inclination: 81.2151°
perigee height: 784 km
apogee height: 877 km
right ascension of ascending node: 116.5004°
argument of perigee: 119.5682°
revolutions per day: 14.18401848
mean anomaly at epoch: 241.1933°
orbit number at epoch: 7531

The dashed part of the orbit path shows where the satellite is in the earth's shadow,  

DLR